[[{"header":{"parameterUnit":"m.s-1","parameterCategory":1,"la1":30.2992,"la2":30.254,"lo1":-89.0895,"lo2":-89.0443,"dy":0.0025,"dx":0.0025,"nx":19,"ny":19,"refTime":"2026-03-18T09:00:00:Z","depth":0,"parameterNumber":2,"parameterNumberName":"U-component_of_WINDS"},"data":[0,0,0,-0.1763,-0.1763,-0.1725,-0.1724,-0.1702,-0.1702,0,0,0,0,0,0,0,0,0,0,0,-0.1788,-0.1788,-0.1763,-0.1763,-0.1725,-0.1724,-0.1702,-0.1702,0,0,0,0,0,0,0,0,0,0,0,-0.1788,-0.1788,-0.1789,-0.1763,-0.1725,-0.1724,-0.1702,-0.1722,0,0,0,0,0,0,0,0,0,0,-0.1754,-0.179,-0.1788,-0.1789,-0.1762,-0.1725,-0.1724,-0.1722,-0.172,-0.1729,0,-0.1739,0,-0.172,-0.1702,-0.1702,0,0,0,-0.1753,-0.1792,-0.1769,-0.1789,-0.1762,-0.1725,-0.1739,-0.1721,-0.1719,-0.1727,-0.1739,-0.1737,-0.172,-0.1702,-0.1702,-0.1784,-0.1785,0,0,-0.1755,-0.1789,-0.177,-0.1768,-0.1774,-0.174,-0.1738,-0.1719,-0.1735,-0.1738,-0.1736,-0.1719,-0.1702,-0.1702,-0.1783,-0.1784,0,0,0,-0.1768,-0.1791,-0.1768,-0.177,-0.1761,-0.174,-0.1737,-0.1736,-0.1725,-0.1736,-0.1719,-0.1702,-0.1702,-0.1782,-0.1784,-0.186,0,0,0,-0.1768,-0.1798,-0.1769,-0.179,-0.1762,-0.1747,-0.1754,-0.1727,-0.1723,-0.1719,-0.1702,-0.1702,-0.1781,-0.1783,-0.1856,-0.1891,0,0,0,-0.1786,-0.18,-0.1799,-0.1792,-0.1776,-0.1747,-0.1735,-0.1725,-0.1714,-0.1702,-0.1702,-0.178,-0.1783,-0.1852,-0.1885,-0.1926,0,0,0,-0.1815,-0.1866,-0.1801,-0.1852,-0.1777,-0.1793,-0.1735,-0.1745,-0.1744,-0.1702,-0.1781,-0.1783,-0.1851,-0.1881,-0.1922,-0.1968,-0.1989,0,0,-0.1899,-0.1878,-0.1905,-0.1845,-0.1882,-0.1796,-0.1845,-0.1811,-0.1779,-0.1785,-0.1786,-0.1857,-0.1885,-0.1925,-0.2092,-0.211,0,0,0,-0.1944,-0.1964,-0.1966,-0.1966,-0.1942,-0.1925,-0.188,-0.1868,-0.1871,-0.1788,-0.188,-0.1895,-0.1917,-0.1938,-0.1953,-0.1971,-0.1793,-0.1793,-0.1793,-0.2113,-0.2069,-0.2113,-0.2065,-0.2066,-0.202,-0.2018,-0.1995,-0.1949,-0.1972,-0.1974,-0.2081,-0.2106,-0.2117,-0.2137,-0.1992,-0.1992,-0.1993,-0.1993,-0.2235,-0.2259,-0.2198,-0.2219,-0.2174,-0.2191,-0.215,-0.2118,-0.213,-0.2075,-0.2092,-0.2039,-0.2137,-0.2153,-0.1998,-0.1997,-0.1997,-0.1996,-0.1996,-0.2344,-0.2348,-0.2332,-0.2329,-0.2332,-0.2282,-0.2296,-0.2253,-0.2213,-0.223,-0.223,-0.2228,-0.2225,-0.2232,-0.2232,-0.2233,-0.2233,-0.2233,-0.2234,-0.2464,-0.2444,-0.2461,-0.244,-0.2436,-0.2425,-0.238,-0.2375,-0.236,-0.2327,-0.2327,-0.2283,-0.2154,-0.2124,-0.2239,-0.2238,-0.2238,-0.2237,-0.2237,-0.261,-0.257,-0.2597,-0.2593,-0.2566,-0.2575,-0.2518,-0.2513,-0.2503,-0.2512,-0.2463,-0.2374,-0.2349,-0.2337,-0.2313,-0.247,-0.247,-0.247,-0.247,-0.2704,-0.2687,-0.2706,-0.2703,-0.2694,-0.2647,-0.2682,-0.2649,-0.2609,-0.26,-0.2571,-0.2533,-0.2523,-0.2505,-0.2489,-0.2466,-0.2659,-0.2659,-0.2659,-0.2793,-0.2773,-0.281,-0.2769,-0.2746,-0.2728,-0.276,-0.2761,-0.2707,-0.2666,-0.2594,-0.2586,-0.2525,-0.2507,-0.2467,-0.2444,-0.24,0,0]},{"header":{"parameterUnit":"m.s-1","parameterCategory":1,"la1":30.2992,"la2":30.254,"lo1":-89.0895,"lo2":-89.0443,"dy":0.0025,"dx":0.0025,"nx":19,"ny":19,"refTime":"2026-03-18T09:00:00:Z","depth":0,"parameterNumber":3,"parameterNumberName":"V-component_of_WINDS"},"data":[0,0,0,1.674,1.6739,1.668,1.668,1.6596,1.6596,0,0,0,0,0,0,0,0,0,0,0,1.6755,1.6754,1.674,1.6739,1.668,1.668,1.6597,1.6596,0,0,0,0,0,0,0,0,0,0,0,1.6755,1.6754,1.6754,1.6738,1.668,1.668,1.6597,1.6643,0,0,0,0,0,0,0,0,0,0,1.6702,1.6713,1.6755,1.6754,1.6738,1.668,1.668,1.6646,1.664,1.662,0,1.6604,0,1.6599,1.659,1.6589,0,0,0,1.674,1.6718,1.6705,1.6754,1.6738,1.668,1.6707,1.6643,1.6637,1.6613,1.6603,1.66,1.6597,1.6589,1.6589,1.6474,1.6473,0,0,1.6743,1.6742,1.6709,1.6701,1.6712,1.6709,1.6705,1.6639,1.6627,1.6603,1.6598,1.6596,1.6589,1.6588,1.6475,1.6474,0,0,0,1.6752,1.6744,1.6733,1.6704,1.6694,1.6707,1.6703,1.663,1.6626,1.6597,1.6595,1.6588,1.6587,1.6475,1.6474,1.6444,0,0,0,1.6754,1.675,1.6734,1.6733,1.6695,1.6662,1.6694,1.6631,1.6623,1.6595,1.6588,1.6586,1.6476,1.6475,1.6446,1.6428,0,0,0,1.6759,1.675,1.6741,1.6733,1.6709,1.6663,1.6656,1.6629,1.6622,1.6589,1.6586,1.6476,1.6475,1.6448,1.6432,1.6396,0,0,0,1.6765,1.6715,1.6741,1.6684,1.6709,1.6646,1.6656,1.6609,1.6577,1.6588,1.6476,1.6474,1.6449,1.6434,1.6399,1.6365,1.6352,0,0,1.6701,1.6707,1.6673,1.6695,1.6627,1.6655,1.6582,1.6553,1.655,1.6499,1.6496,1.6445,1.6432,1.6397,1.6283,1.6272,0,0,0,1.6652,1.6628,1.661,1.6582,1.656,1.6539,1.6522,1.6511,1.6468,1.6524,1.6425,1.6417,1.6396,1.638,1.6371,1.6352,1.6468,1.6468,1.6468,1.6558,1.6559,1.6502,1.6495,1.6467,1.6451,1.6427,1.6409,1.6417,1.6393,1.6377,1.6308,1.6289,1.6282,1.6263,1.6362,1.6362,1.6362,1.6362,1.6461,1.6425,1.6439,1.6389,1.6389,1.6346,1.6328,1.6334,1.6293,1.632,1.6302,1.6329,1.6271,1.6253,1.6359,1.636,1.636,1.636,1.636,1.6397,1.638,1.637,1.6328,1.6296,1.6291,1.625,1.6252,1.6253,1.6235,1.6217,1.6217,1.6215,1.6227,1.6227,1.6227,1.6226,1.6226,1.6226,1.6333,1.6322,1.6289,1.6263,1.6245,1.622,1.6204,1.6185,1.6164,1.6168,1.6168,1.6176,1.6267,1.6288,1.6222,1.6223,1.6223,1.6224,1.6224,1.6229,1.6253,1.6202,1.6184,1.6152,1.6119,1.6123,1.6084,1.6069,1.6048,1.6062,1.613,1.6135,1.6142,1.6159,1.6064,1.6064,1.6064,1.6064,1.6172,1.6177,1.6124,1.6094,1.6066,1.6065,1.6004,1.599,1.598,1.597,1.5985,1.6009,1.6016,1.6017,1.6026,1.6042,1.592,1.592,1.5919,1.6107,1.6109,1.6057,1.605,1.6026,1.6004,1.5946,1.591,1.5903,1.5914,1.5961,1.5967,1.6006,1.602,1.6027,1.6043,1.6072,0,0]}]]